Regional Weather Roundup
Issued by NWS

Home | Current Version | Previous Version | Graphics & Text | Print | Product List | Glossary On
Versions: 1 2 3 4 5 6 7 8 9 10 11 12 13 14 15 16 17 18 19 20 21 22 23 24 25 26 27 28 29 30 31 32 33 34 35 36 37 38 39 40 41 42 43 44 45 46 47 48 49 50
000
ASUS44 KMEG 161610
RWRTN
TENNESSEE HOURLY STATE WEATHER ROUNDUP
NATIONAL WEATHER SERVICE MEMPHIS TN
1000 AM CST SAT DEC 16 2017

TNZ002-004-019-021-049-052-054-088>092-161700-
WEST TENNESSEE

CITY           SKY/WX    TMP DP  RH WIND       PRES   REMARKS
MEMPHIS INTL   PTSUNNY   46  31  55 SW9G18    30.25R
NWS MEMPHIS      N/A     44 N/A N/A MISG        N/A
JACKSON        SUNNY     45  30  55 SW9       30.25R
DYERSBURG      CLOUDY    45  30  55 S8        30.23S
SOMERVILLE     SUNNY     46  30  53 SW14      30.24R
COVINGTON      SUNNY     46  32  57 S10       30.24S
UNION CITY     SUNNY     41  30  65 SW9G15    30.22R
BOLIVAR        SUNNY     45  30  57 S10       30.25S
PARIS          SUNNY     41  30  65 SW12      30.21R
HUNTINGDON     SUNNY     45  30  57 SW13      30.22S
LEXINGTON      SUNNY     43  28  56 S12G18    30.26S
SELMER         SUNNY     41  28  60 SW8       30.26S
SAVANNAH       SUNNY     45  30  57 SW9       30.28S
$$

TNZ008-025-027-028-033-062-065-066-161700-
NORTH MIDDLE TENNESSEE

CITY           SKY/WX    TMP DP  RH WIND       PRES   REMARKS
NASHVILLE      CLOUDY    41  26  55 SW9       30.27R
PORTLAND       SUNNY     37  28  70 SW12G20   30.22S WCI  30
CLARKSVILLE    SUNNY     42  27  55 S14G24    30.22R
SMYRNA         MOSUNNY   41  29  62 S10       30.28R
COOKEVILLE     SUNNY     37  28  70 S8G15     30.26S WCI  31
GALLATIN       SUNNY     39  28  65 SW10      30.29R WCI  32
CROSSVILLE     CLOUDY    38  26  62 SW7       30.25R WCI  33
$$

TNZ061-075-076-078-094-096-097-161700-
SOUTH MIDDLE TENNESSEE

CITY           SKY/WX    TMP DP  RH WIND       PRES   REMARKS
FAYETTEVILLE   SUNNY     37  28  70 SW7       30.30R WCI  32
TULLAHOMA      SUNNY     39  28  65 SW7       30.29R WCI  34
WINCHESTER       N/A     37  27  65 CALM      30.31R
MCMINNVILLE    SUNNY     41  28  60 SW12      30.28R
COLUMBIA       SUNNY     41  28  60 SW12G17   30.27R
SHELBYVILLE    SUNNY     41  28  60 S13       30.29R
$$

TNZ017-018-042-046-047-161700-
NORTHEAST TENNESSEE

CITY           SKY/WX    TMP DP  RH WIND       PRES   REMARKS
TRI CITIES     SUNNY     36  25  64 CALM      30.26S
ELIZABETHTON   SUNNY     39  23  52 CALM      30.26S
$$

TNZ012-013-036-069-073-074-161700-
CENTRAL EAST TENNESSEE

CITY           SKY/WX    TMP DP  RH WIND       PRES   REMARKS
KNOXVILLE      CLOUDY    34  28  79 S5        30.29S WCI  30
OAK RIDGE      SUNNY     37  25  61 VRB3      30.31R
DOWNTOWN KNOXV SUNNY     37  28  70 CALM      30.31S
GATLINBURG     SUNNY     36  25  64 CALM      30.29S
MORRISTOWN     SUNNY     37  25  60 SW6       30.26S WCI  33
JACKSBORO      SUNNY     36  25  64 CALM      30.30S
$$

TNZ083-085-099-161700-
SOUTHEAST TENNESSEE

CITY           SKY/WX    TMP DP  RH WIND       PRES   REMARKS
CHATTANOOGA    CLOUDY    36  26  67 CALM      30.33S
DAYTON         SUNNY     34  30  86 CALM      30.31S
$$

SKY/WX REPORTED AS FAIR MEANS FEW OR NO CLOUDS BELOW
12 THOUSAND FEET.





USA.gov is the U.S. government's official web portal to all federal, state and local government web resources and services.